User: anonymous   Login
Location: Vancouver
(49.2500°N, 123.1330°W)
Time: 11:25:18
(UTC-08:00)
Language:

ISS - Orbit

View from above orbital plane
View from above orbital plane
View from above satellite
View from above satellite

Ground track
Ground track

The orbit data is extracted from the following two-line orbital elements,

1 25544U 98067A   16044.62154462  .00017385  00000-0  26363-3 0  9992
2 25544  51.6440 319.2211 0006820 112.9155 319.9317 15.54696058985601
Epoch (UTC): 13 February 2016 14:55:01
Eccentricity: 0.0006820
inclination: 51.6440°
perigee height: 398 km
apogee height: 407 km
right ascension of ascending node: 319.2211°
argument of perigee: 112.9155°
revolutions per day: 15.54696058
mean anomaly at epoch: 319.9317°
orbit number at epoch: 98560

The dashed part of the orbit path shows where the satellite is in the earth's shadow,  

DLR